Location: Chillicothe
(39.7950°N, 93.5520°W)
Time: 02:44:35
(UTC-06:00)

BEESAT - Pass Details

Date: 17 November 2019
Orbit: 700 x 709 km, 98.6° (Epoch: 05 December)

Event Time Altitude Azimuth Distance (km) Brightness Sun altitude
Rises 18:06:48 0° 8° (N) 3,095 ? -13.5°
Reaches altitude 10° 18:09:05 10° 4° (N) 2,174 ? -13.9°
Maximum altitude 18:13:44 56° 288° (WNW) 836 ? -14.8°
Drops below altitude 10° 18:18:22 10° 210° (SSW) 2,164 ? -15.7°
Sets 18:20:39 0° 206° (SSW) 3,079 ? -16.1°
